Location: De Har
(53.3413°N, 6.6858°E)
Time: 08:58:22
(UTC+00:00)

Cosmos 44 - Pass Details

Date: 22 April 2026
Orbit: 568 x 782 km, 65.1° (Epoch: 15 May)

Event Time Altitude Azimuth Distance (km) Brightness Sun altitude
Rises 02:57:50 0° 315° (NW) 3,267 6.7 -11.2°
Reaches altitude 10° 03:00:18 10° 319° (NW) 2,345 6.0 -10.9°
Maximum altitude 03:05:40 58° 39° (NE) 907 4.3 -10.3°
Drops below altitude 10° 03:10:57 10° 119° (ESE) 2,309 6.3 -9.6°
Sets 03:13:21 0° 123° (ESE) 3,213 7.0 -9.3°
